• In Czech Republic
  • List of Countries
  • For 7 days
  • Water Temperature
  • Satellite Maps
  • Weather Map
  • Weather Widgets
  • user-avatar
    Login

    Hourly Weather Sevan

    Today, 18 August, Friday

    Time Temperature Precipitation Wind Pressure Humidity
    00:00 +18°C° 0.1 mm 2 mps 642 mmHg 79%
    01:00 +17°C° 0 mm 2 mps 641 mmHg 79%
    02:00 +17°C° 0 mm 2 mps 641 mmHg 80%
    03:00 +16°C° 0 mm 2 mps 641 mmHg 80%
    04:00 +17°C° 0 mm 2 mps 641 mmHg 79%
    05:00 +17°C° 0 mm 2 mps 641 mmHg 78%
    06:00 +18°C° 0 mm 1 mps 642 mmHg 76%
    07:00 +20°C° 0 mm 1 mps 642 mmHg 67%
    08:00 +22°C° 0 mm 1 mps 643 mmHg 57%
    09:00 +25°C° 0 mm 1 mps 643 mmHg 48%
    10:00 +26°C° 0 mm 1 mps 644 mmHg 44%
    11:00 +28°C° 0 mm 2 mps 644 mmHg 39%
    12:00 +29°C° 0 mm 2 mps 644 mmHg 35%
    13:00 +30°C° 0 mm 2 mps 644 mmHg 34%
    14:00 +30°C° 0 mm 2 mps 644 mmHg 33%
    15:00 +30°C° 0 mm 2 mps 644 mmHg 31%
    16:00 +29°C° 0.3 mm 2 mps 643 mmHg 36%
    17:00 +28°C° 0.3 mm 2 mps 643 mmHg 41%
    18:00 +27°C° 0.3 mm 2 mps 643 mmHg 45%
    19:00 +25°C° 0.2 mm 2 mps 643 mmHg 52%
    20:00 +24°C° 0.2 mm 2 mps 643 mmHg 59%
    21:00 +21°C° 0.2 mm 3 mps 643 mmHg 65%
    22:00 +20°C° 0.1 mm 3 mps 643 mmHg 67%
    23:00 +20°C° 0.1 mm 2 mps 643 mmHg 68%

    Tomorrow, 19 August, Saturday

    Time Temperature Precipitation Wind Pressure Humidity
    00:00 +19°C° 0.1 mm 2 mps 643 mmHg 70%
    01:00 +19°C° 0 mm 2 mps 643 mmHg 70%
    02:00 +18°C° 0 mm 2 mps 643 mmHg 71%
    03:00 +18°C° 0 mm 2 mps 643 mmHg 72%
    04:00 +18°C° 0 mm 2 mps 643 mmHg 71%
    05:00 +18°C° 0 mm 2 mps 643 mmHg 70%
    06:00 +18°C° 0 mm 2 mps 643 mmHg 70%
    07:00 +20°C° 0 mm 2 mps 644 mmHg 60%
    08:00 +23°C° 0 mm 2 mps 645 mmHg 51%
    09:00 +26°C° 0 mm 2 mps 645 mmHg 42%
    10:00 +27°C° 0 mm 2 mps 645 mmHg 38%
    11:00 +28°C° 0 mm 2 mps 645 mmHg 35%
    12:00 +30°C° 0 mm 3 mps 645 mmHg 31%
    13:00 +30°C° 0 mm 3 mps 645 mmHg 30%
    14:00 +31°C° 0 mm 3 mps 645 mmHg 29%
    15:00 +31°C° 0 mm 3 mps 645 mmHg 28%
    16:00 +30°C° 0 mm 3 mps 645 mmHg 32%
    17:00 +29°C° 0 mm 3 mps 644 mmHg 35%
    18:00 +28°C° 0 mm 2 mps 644 mmHg 39%
    19:00 +26°C° 0 mm 3 mps 644 mmHg 44%
    20:00 +24°C° 0 mm 3 mps 644 mmHg 49%
    21:00 +21°C° 0 mm 3 mps 644 mmHg 54%
    22:00 +20°C° 0 mm 3 mps 644 mmHg 53%
    23:00 +20°C° 0 mm 3 mps 644 mmHg 51%

    Day after tomorrow, 20 August, Sunday

    Time Temperature Precipitation Wind Pressure Humidity
    00:00 +19°C° 0 mm 3 mps 644 mmHg 50%
    01:00 +19°C° 0 mm 2 mps 644 mmHg 50%
    02:00 +18°C° 0 mm 2 mps 644 mmHg 50%
    03:00 +18°C° 0 mm 2 mps 644 mmHg 50%
    04:00 +18°C° 0 mm 2 mps 644 mmHg 50%
    05:00 +18°C° 0 mm 2 mps 644 mmHg 51%
    06:00 +18°C° 0 mm 2 mps 644 mmHg 51%
    07:00 +20°C° 0 mm 2 mps 645 mmHg 45%
    08:00 +24°C° 0 mm 2 mps 645 mmHg 39%
    09:00 +26°C° 0 mm 2 mps 646 mmHg 33%
    10:00 +28°C° 0 mm 2 mps 646 mmHg 31%
    11:00 +29°C° 0 mm 2 mps 646 mmHg 28%
    12:00 +30°C° 0 mm 3 mps 646 mmHg 25%
    13:00 +31°C° 0 mm 3 mps 646 mmHg 25%
    14:00 +31°C° 0 mm 3 mps 645 mmHg 24%
    15:00 +31°C° 0 mm 3 mps 645 mmHg 23%
    16:00 +30°C° 0 mm 2 mps 645 mmHg 27%
    17:00 +29°C° 0 mm 2 mps 644 mmHg 31%
    18:00 +28°C° 0 mm 2 mps 644 mmHg 34%
    19:00 +26°C° 0 mm 2 mps 644 mmHg 39%
    20:00 +24°C° 0 mm 3 mps 644 mmHg 43%
    21:00 +21°C° 0 mm 3 mps 644 mmHg 48%
    22:00 +20°C° 0 mm 3 mps 644 mmHg 47%
    23:00 +20°C° 0 mm 3 mps 644 mmHg 47%

    21 August, Monday

    Time Temperature Precipitation Wind Pressure Humidity
    00:00 +19°C° 0 mm 3 mps 644 mmHg 47%
    01:00 +19°C° 0 mm 2 mps 643 mmHg 47%
    02:00 +18°C° 0 mm 2 mps 643 mmHg 47%
    03:00 +18°C° 0 mm 2 mps 643 mmHg 47%
    04:00 +18°C° 0 mm 2 mps 643 mmHg 48%
    05:00 +18°C° 0 mm 2 mps 643 mmHg 48%
    06:00 +18°C° 0 mm 2 mps 643 mmHg 48%
    07:00 +20°C° 0 mm 2 mps 644 mmHg 42%
    08:00 +24°C° 0 mm 2 mps 644 mmHg 36%
    09:00 +27°C° 0 mm 2 mps 645 mmHg 30%
    10:00 +28°C° 0 mm 2 mps 645 mmHg 27%
    11:00 +30°C° 0 mm 2 mps 645 mmHg 25%
    12:00 +31°C° 0 mm 2 mps 645 mmHg 23%
    13:00 +32°C° 0 mm 2 mps 645 mmHg 22%
    14:00 +32°C° 0 mm 2 mps 645 mmHg 21%
    15:00 +32°C° 0 mm 2 mps 644 mmHg 21%
    16:00 +31°C° 0 mm 2 mps 644 mmHg 25%
    17:00 +30°C° 0 mm 2 mps 644 mmHg 30%
    18:00 +28°C° 0 mm 1 mps 643 mmHg 34%
    19:00 +26°C° 0 mm 2 mps 643 mmHg 39%
    20:00 +24°C° 0 mm 2 mps 643 mmHg 44%
    21:00 +21°C° 0 mm 3 mps 643 mmHg 49%
    22:00 +21°C° 0 mm 2 mps 643 mmHg 50%
    23:00 +20°C° 0 mm 2 mps 643 mmHg 51%

    22 August, Tuesday

    Time Temperature Precipitation Wind Pressure Humidity
    00:00 +20°C° 0 mm 2 mps 643 mmHg 52%
    01:00 +19°C° 0 mm 2 mps 642 mmHg 52%
    02:00 +19°C° 0 mm 2 mps 642 mmHg 52%
    03:00 +18°C° 0 mm 2 mps 642 mmHg 53%
    04:00 +19°C° 0 mm 1 mps 642 mmHg 52%
    05:00 +20°C° 0 mm 1 mps 642 mmHg 51%
    06:00 +20°C° 0 mm 1 mps 642 mmHg 50%
    07:00 +23°C° 0 mm 1 mps 643 mmHg 43%
    08:00 +25°C° 0 mm 2 mps 644 mmHg 35%
    09:00 +28°C° 0 mm 2 mps 644 mmHg 27%
    10:00 +30°C° 0 mm 2 mps 644 mmHg 25%
    11:00 +31°C° 0 mm 2 mps 644 mmHg 23%
    12:00 +34°C° 0 mm 3 mps 644 mmHg 20%
    13:00 +34°C° 0 mm 2 mps 644 mmHg 20%
    14:00 +35°C° 0 mm 2 mps 643 mmHg 19%
    15:00 +35°C° 0 mm 2 mps 643 mmHg 19%
    16:00 +34°C° 0 mm 2 mps 643 mmHg 22%
    17:00 +31°C° 0 mm 2 mps 642 mmHg 26%
    18:00 +30°C° 0 mm 2 mps 642 mmHg 30%
    19:00 +28°C° 0 mm 2 mps 642 mmHg 35%
    20:00 +26°C° 0 mm 2 mps 642 mmHg 40%
    21:00 +24°C° 0 mm 3 mps 641 mmHg 45%
    22:00 +22°C° 0 mm 3 mps 641 mmHg 47%
    23:00 +21°C° 0 mm 3 mps 641 mmHg 48%

    23 August, Wednesday

    Time Temperature Precipitation Wind Pressure Humidity
    00:00 +21°C° 0 mm 3 mps 641 mmHg 49%
    01:00 +20°C° 0 mm 2 mps 641 mmHg 50%
    02:00 +20°C° 0 mm 2 mps 641 mmHg 50%
    03:00 +19°C° 0 mm 2 mps 641 mmHg 51%
    04:00 +19°C° 0 mm 2 mps 641 mmHg 51%
    05:00 +19°C° 0 mm 2 mps 642 mmHg 51%
    06:00 +19°C° 0 mm 2 mps 642 mmHg 52%
    07:00 +21°C° 0 mm 2 mps 643 mmHg 46%
    08:00 +25°C° 0 mm 2 mps 643 mmHg 39%
    09:00 +27°C° 0 mm 2 mps 644 mmHg 33%
    10:00 +28°C° 0 mm 2 mps 644 mmHg 31%
    11:00 +30°C° 0 mm 2 mps 644 mmHg 29%
    12:00 +31°C° 0 mm 2 mps 644 mmHg 27%
    13:00 +31°C° 0 mm 3 mps 644 mmHg 27%
    14:00 +31°C° 0 mm 3 mps 644 mmHg 27%
    15:00 +33°C° 0 mm 4 mps 644 mmHg 27%
    16:00 +30°C° 0 mm 4 mps 644 mmHg 30%
    17:00 +29°C° 0 mm 4 mps 644 mmHg 33%
    18:00 +27°C° 0 mm 4 mps 643 mmHg 36%
    19:00 +26°C° 0 mm 4 mps 643 mmHg 39%
    20:00 +23°C° 0 mm 4 mps 643 mmHg 42%
    21:00 +21°C° 0 mm 4 mps 643 mmHg 45%
    22:00 +20°C° 0 mm 3 mps 644 mmHg 48%
    23:00 +20°C° 0 mm 3 mps 644 mmHg 52%
    Show more